Time,TemperatureF,DewpointF,PressureIn,WindDirection,WindDirectionDegrees,WindSpeedMPH,WindSpeedGustMPH,Humidity,HourlyPrecipIn,Conditions,Clouds,dailyrainin,SoftwareType,DateUTC
2013-02-12 00:00:00,40.4,39.3,30.35,East,88,0.0,0.0,96,0.00,,---,0.01,VWS V14.01,2013-02-12 08:00:00,
2013-02-12 00:05:00,40.5,39.5,30.36,East,88,0.0,0.0,96,0.00,,---,0.00,VWS V14.01,2013-02-12 08:05:00,
2013-02-12 00:10:00,40.7,39.9,30.35,SSE,156,0.0,0.0,97,0.00,,---,0.00,VWS V14.01,2013-02-12 08:10:00,
2013-02-12 00:15:00,40.8,40.0,30.36,SSE,156,0.0,0.0,97,0.00,,---,0.00,VWS V14.01,2013-02-12 08:15:00,
2013-02-12 00:20:00,40.8,39.8,30.36,SSE,156,0.0,0.0,96,0.00,,---,0.00,VWS V14.01,2013-02-12 08:20:00,
2013-02-12 00:25:00,40.8,39.8,30.36,SSE,156,0.0,0.0,96,0.00,,---,0.00,VWS V14.01,2013-02-12 08:25:00,
2013-02-12 00:30:00,40.7,39.7,30.35,SSE,156,0.0,0.0,96,0.00,,---,0.00,VWS V14.01,2013-02-12 08:30:00,
2013-02-12 00:35:00,40.7,39.7,30.36,SSE,156,0.0,0.0,96,0.00,,---,0.00,VWS V14.01,2013-02-12 08:35:00,
2013-02-12 00:40:00,40.8,40.0,30.35,SSE,156,0.0,0.0,97,0.00,,---,0.00,VWS V14.01,2013-02-12 08:40:00,
2013-02-12 00:45:00,40.9,40.1,30.35,SSE,156,0.0,0.0,97,0.00,,---,0.00,VWS V14.01,2013-02-12 08:45:00,
2013-02-12 00:50:00,41.0,40.2,30.35,SSE,156,0.0,0.0,97,0.00,,---,0.00,VWS V14.01,2013-02-12 08:50:00,
2013-02-12 00:55:00,41.0,40.2,30.35,SSE,156,0.0,0.0,97,0.00,,---,0.00,VWS V14.01,2013-02-12 08:55:00,
2013-02-12 01:00:00,41.1,40.3,30.35,SW,219,0.0,0.0,97,0.00,,---,0.00,VWS V14.01,2013-02-12 09:00:00,
2013-02-12 01:05:00,41.1,40.3,30.35,SW,219,0.0,0.0,97,0.00,,---,0.00,VWS V14.01,2013-02-12 09:05:00,
2013-02-12 01:10:00,41.0,40.2,30.35,SW,219,0.0,0.0,97,0.00,,---,0.00,VWS V14.01,2013-02-12 09:10:00,
2013-02-12 01:15:00,41.1,40.3,30.35,SW,219,0.0,0.0,97,0.00,,---,0.00,VWS V14.01,2013-02-12 09:15:00,
2013-02-12 01:20:00,41.1,40.3,30.35,SW,219,0.0,0.0,97,0.00,,---,0.00,VWS V14.01,2013-02-12 09:20:00,
2013-02-12 01:25:00,41.1,40.3,30.35,SW,219,0.0,0.0,97,0.00,,---,0.00,VWS V14.01,2013-02-12 09:25:00,
2013-02-12 01:30:00,41.1,40.3,30.35,SW,219,0.0,0.0,97,0.00,,---,0.00,VWS V14.01,2013-02-12 09:30:00,
2013-02-12 01:35:00,41.1,40.3,30.35,SW,219,0.0,0.0,97,0.00,,---,0.00,VWS V14.01,2013-02-12 09:35:00,
2013-02-12 01:40:00,41.1,40.3,30.35,SW,219,0.0,0.0,97,0.00,,---,0.00,VWS V14.01,2013-02-12 09:40:00,
2013-02-12 01:45:00,41.0,40.2,30.35,SW,219,0.0,0.0,97,0.00,,---,0.00,VWS V14.01,2013-02-12 09:45:00,
2013-02-12 01:50:00,41.1,40.3,30.35,SW,219,0.0,0.0,97,0.00,,---,0.00,VWS V14.01,2013-02-12 09:50:00,
2013-02-12 01:55:00,41.1,40.3,30.35,SW,219,0.0,0.0,97,0.00,,---,0.00,VWS V14.01,2013-02-12 09:55:00,
2013-02-12 02:00:00,41.0,40.2,30.35,SW,219,0.0,0.0,97,0.00,,---,0.00,VWS V14.01,2013-02-12 10:00:00,
2013-02-12 02:05:00,41.1,40.3,30.35,SW,219,0.0,0.0,97,0.00,,---,0.00,VWS V14.01,2013-02-12 10:05:00,
2013-02-12 02:10:00,41.1,40.3,30.36,SW,219,0.0,0.0,97,0.00,,---,0.00,VWS V14.01,2013-02-12 10:10:00,
2013-02-12 02:15:00,41.1,40.3,30.36,SW,219,0.0,0.0,97,0.00,,---,0.00,VWS V14.01,2013-02-12 10:15:00,
2013-02-12 02:20:00,41.2,40.4,30.36,SW,219,0.0,0.0,97,0.00,,---,0.00,VWS V14.01,2013-02-12 10:20:00,
2013-02-12 02:25:00,41.1,40.3,30.36,SW,219,0.0,0.0,97,0.00,,---,0.00,VWS V14.01,2013-02-12 10:25:00,
2013-02-12 02:30:00,41.2,40.4,30.36,SW,219,0.0,0.0,97,0.00,,---,0.00,VWS V14.01,2013-02-12 10:30:00,
2013-02-12 02:35:00,41.1,40.3,30.36,SW,219,0.0,0.0,97,0.00,,---,0.00,VWS V14.01,2013-02-12 10:35:00,
2013-02-12 02:40:00,41.1,40.3,30.36,SW,219,0.0,0.0,97,0.00,,---,0.00,VWS V14.01,2013-02-12 10:40:00,
2013-02-12 02:45:00,41.1,40.3,30.36,SW,219,0.0,0.0,97,0.00,,---,0.00,VWS V14.01,2013-02-12 10:45:00,
2013-02-12 02:50:00,41.1,40.3,30.36,SW,219,0.0,0.0,97,0.00,,---,0.00,VWS V14.01,2013-02-12 10:50:00,
2013-02-12 02:55:00,41.1,40.3,30.37,SW,219,0.0,0.0,97,0.00,,---,0.00,VWS V14.01,2013-02-12 10:55:00,
2013-02-12 03:00:00,41.0,40.2,30.36,SW,219,0.0,0.0,97,0.00,,---,0.00,VWS V14.01,2013-02-12 11:00:00,
2013-02-12 03:05:00,41.1,40.3,30.36,SW,219,0.0,0.0,97,0.00,,---,0.00,VWS V14.01,2013-02-12 11:05:00,
2013-02-12 03:10:00,41.1,40.3,30.36,SW,219,0.0,0.0,97,0.00,,---,0.00,VWS V14.01,2013-02-12 11:10:00,
2013-02-12 03:15:00,41.1,40.3,30.36,SW,219,0.0,0.0,97,0.00,,---,0.00,VWS V14.01,2013-02-12 11:15:00,
2013-02-12 03:20:00,41.1,40.3,30.36,SW,219,0.0,0.0,97,0.00,,---,0.00,VWS V14.01,2013-02-12 11:20:00,
2013-02-12 03:25:00,41.1,40.3,30.36,SW,219,0.0,0.0,97,0.00,,---,0.00,VWS V14.01,2013-02-12 11:25:00,
2013-02-12 03:30:00,41.2,40.4,30.36,SW,219,0.0,0.0,97,0.00,,---,0.00,VWS V14.01,2013-02-12 11:30:00,
2013-02-12 03:35:00,41.1,40.3,30.36,SW,219,0.0,0.0,97,0.00,,---,0.00,VWS V14.01,2013-02-12 11:35:00,
2013-02-12 03:40:00,41.0,40.2,30.36,SW,219,0.0,0.0,97,0.00,,---,0.00,VWS V14.01,2013-02-12 11:40:00,
2013-02-12 03:45:00,40.9,40.1,30.36,SW,219,0.0,0.0,97,0.00,,---,0.00,VWS V14.01,2013-02-12 11:45:00,
2013-02-12 03:50:00,41.0,40.2,30.36,SW,219,0.0,0.0,97,0.00,,---,0.00,VWS V14.01,2013-02-12 11:50:00,
2013-02-12 03:55:00,41.0,40.2,30.36,SW,219,0.0,0.0,97,0.00,,---,0.00,VWS V14.01,2013-02-12 11:55:00,
2013-02-12 03:59:00,41.0,40.2,30.36,SW,219,0.0,0.0,97,0.00,,---,0.00,VWS V14.01,2013-02-12 11:59:00,
2013-02-12 04:04:00,41.0,40.2,30.36,SW,219,0.0,0.0,97,0.00,,---,0.00,VWS V14.01,2013-02-12 12:04:00,
2013-02-12 04:09:00,41.0,40.2,30.36,SW,219,0.0,0.0,97,0.00,,---,0.00,VWS V14.01,2013-02-12 12:09:00,
2013-02-12 04:14:00,41.1,40.3,30.36,SW,219,0.0,0.0,97,0.00,,---,0.00,VWS V14.01,2013-02-12 12:14:00,
2013-02-12 04:19:00,41.1,40.3,30.36,SW,219,0.0,0.0,97,0.00,,---,0.00,VWS V14.01,2013-02-12 12:19:00,
2013-02-12 04:24:00,41.1,40.3,30.36,SW,219,0.0,0.0,97,0.00,,---,0.00,VWS V14.01,2013-02-12 12:24:00,
2013-02-12 04:29:00,41.0,40.2,30.36,SW,219,0.0,0.0,97,0.00,,---,0.00,VWS V14.01,2013-02-12 12:29:00,
2013-02-12 04:34:00,40.9,40.1,30.36,SW,219,0.0,0.0,97,0.00,,---,0.00,VWS V14.01,2013-02-12 12:34:00,
2013-02-12 04:39:00,40.9,40.1,30.36,SW,219,0.0,0.0,97,0.00,,---,0.00,VWS V14.01,2013-02-12 12:39:00,
2013-02-12 04:44:00,40.8,40.0,30.36,SW,219,0.0,0.0,97,0.00,,---,0.00,VWS V14.01,2013-02-12 12:44:00,
2013-02-12 04:49:00,40.8,40.0,30.36,SW,219,0.0,0.0,97,0.00,,---,0.00,VWS V14.01,2013-02-12 12:49:00,
2013-02-12 04:54:00,40.7,39.9,30.36,SW,219,0.0,0.0,97,0.00,,---,0.00,VWS V14.01,2013-02-12 12:54:00,
2013-02-12 04:59:00,40.7,39.9,30.36,SW,219,0.0,0.0,97,0.00,,---,0.00,VWS V14.01,2013-02-12 12:59:00,
2013-02-12 05:04:00,40.7,39.9,30.36,SW,219,0.0,0.0,97,0.00,,---,0.00,VWS V14.01,2013-02-12 13:04:00,
2013-02-12 05:09:00,40.7,39.9,30.36,SW,219,0.0,0.0,97,0.00,,---,0.00,VWS V14.01,2013-02-12 13:09:00,
2013-02-12 05:14:00,40.7,39.9,30.36,SW,219,0.0,0.0,97,0.00,,---,0.00,VWS V14.01,2013-02-12 13:14:00,
2013-02-12 05:19:00,40.8,40.0,30.36,SW,219,0.0,0.0,97,0.00,,---,0.00,VWS V14.01,2013-02-12 13:19:00,
2013-02-12 05:24:00,40.8,40.0,30.36,SW,219,0.0,0.0,97,0.00,,---,0.00,VWS V14.01,2013-02-12 13:24:00,
2013-02-12 05:29:00,40.8,40.0,30.36,SW,219,0.0,0.0,97,0.00,,---,0.00,VWS V14.01,2013-02-12 13:29:00,
2013-02-12 05:34:00,40.8,40.0,30.36,SW,219,0.0,0.0,97,0.00,,---,0.00,VWS V14.01,2013-02-12 13:34:00,
2013-02-12 05:39:00,40.8,40.0,30.36,SW,219,0.0,0.0,97,0.00,,---,0.00,VWS V14.01,2013-02-12 13:39:00,
2013-02-12 05:44:00,40.8,40.0,30.36,SW,219,0.0,0.0,97,0.00,,---,0.00,VWS V14.01,2013-02-12 13:44:00,
2013-02-12 05:49:00,40.8,40.0,30.36,SW,219,0.0,0.0,97,0.00,,---,0.00,VWS V14.01,2013-02-12 13:49:00,
2013-02-12 05:54:00,40.8,40.0,30.36,SW,219,0.0,0.0,97,0.00,,---,0.00,VWS V14.01,2013-02-12 13:54:00,
2013-02-12 05:59:00,40.8,40.0,30.36,SW,219,0.0,0.0,97,0.00,,---,0.00,VWS V14.01,2013-02-12 13:59:00,
2013-02-12 06:04:00,40.7,39.9,30.36,SW,219,0.0,0.0,97,0.00,,---,0.00,VWS V14.01,2013-02-12 14:04:00,
2013-02-12 06:09:00,40.7,39.9,30.37,SW,219,0.0,0.0,97,0.00,,---,0.00,VWS V14.01,2013-02-12 14:09:00,
2013-02-12 06:14:00,40.8,40.0,30.36,SW,219,0.0,0.0,97,0.00,,---,0.00,VWS V14.01,2013-02-12 14:14:00,
2013-02-12 06:19:00,40.8,40.0,30.36,SW,219,0.0,0.0,97,0.00,,---,0.00,VWS V14.01,2013-02-12 14:19:00,
2013-02-12 06:24:00,40.8,40.0,30.36,SW,219,0.0,0.0,97,0.00,,---,0.00,VWS V14.01,2013-02-12 14:24:00,
2013-02-12 06:29:00,40.8,40.0,30.36,SW,219,0.0,0.0,97,0.00,,---,0.00,VWS V14.01,2013-02-12 14:29:00,
2013-02-12 06:34:00,40.9,40.1,30.36,SW,219,0.0,0.0,97,0.00,,---,0.00,VWS V14.01,2013-02-12 14:34:00,
2013-02-12 06:39:00,40.9,40.1,30.36,SW,219,0.0,0.0,97,0.00,,---,0.00,VWS V14.01,2013-02-12 14:39:00,
2013-02-12 06:44:00,40.9,40.1,30.37,SW,219,0.0,0.0,97,0.00,,---,0.00,VWS V14.01,2013-02-12 14:44:00,
2013-02-12 06:49:00,40.9,40.1,30.37,SW,219,0.0,0.0,97,0.00,,---,0.00,VWS V14.01,2013-02-12 14:49:00,
2013-02-12 06:54:00,40.9,40.1,30.37,SW,219,0.0,0.0,97,0.00,,---,0.00,VWS V14.01,2013-02-12 14:54:00,
2013-02-12 06:59:00,40.9,40.1,30.37,SW,219,0.0,0.0,97,0.00,,---,0.00,VWS V14.01,2013-02-12 14:59:00,
2013-02-12 07:04:00,40.9,40.1,30.37,SW,219,0.0,0.0,97,0.00,,---,0.00,VWS V14.01,2013-02-12 15:04:00,
2013-02-12 07:09:00,40.9,40.1,30.37,SW,219,0.0,0.0,97,0.00,,---,0.00,VWS V14.01,2013-02-12 15:09:00,
2013-02-12 07:14:00,41.0,40.2,30.37,SW,219,0.0,0.0,97,0.00,,---,0.00,VWS V14.01,2013-02-12 15:14:00,
2013-02-12 07:19:00,41.0,40.2,30.37,SW,219,0.0,0.0,97,0.00,,---,0.00,VWS V14.01,2013-02-12 15:19:00,
2013-02-12 07:24:00,41.0,40.2,30.37,SW,219,0.0,0.0,97,0.00,,---,0.00,VWS V14.01,2013-02-12 15:24:00,
2013-02-12 07:29:00,40.9,40.1,30.37,SW,219,0.0,0.0,97,0.00,,---,0.00,VWS V14.01,2013-02-12 15:29:00,
2013-02-12 07:34:00,40.9,40.1,30.38,SW,219,0.0,0.0,97,0.00,,---,0.00,VWS V14.01,2013-02-12 15:34:00,
2013-02-12 07:39:00,41.0,40.2,30.38,SW,219,0.0,0.0,97,0.00,,---,0.00,VWS V14.01,2013-02-12 15:39:00,
2013-02-12 07:44:00,41.0,40.2,30.38,SW,219,0.0,0.0,97,0.00,,---,0.00,VWS V14.01,2013-02-12 15:44:00,
2013-02-12 07:49:00,41.0,40.2,30.38,SW,219,0.0,0.0,97,0.00,,---,0.00,VWS V14.01,2013-02-12 15:49:00,
2013-02-12 07:54:00,41.1,40.3,30.38,SW,219,0.0,0.0,97,0.00,,---,0.00,VWS V14.01,2013-02-12 15:54:00,
2013-02-12 07:59:00,41.1,40.3,30.38,SW,219,0.0,0.0,97,0.00,,---,0.00,VWS V14.01,2013-02-12 15:59:00,
2013-02-12 08:04:00,41.2,40.4,30.38,SW,219,0.0,0.0,97,0.00,,---,0.00,VWS V14.01,2013-02-12 16:04:00,
2013-02-12 08:09:00,41.3,40.5,30.38,SW,219,0.0,0.0,97,0.00,,---,0.00,VWS V14.01,2013-02-12 16:09:00,
2013-02-12 08:14:00,41.3,40.5,30.38,SW,219,0.0,0.0,97,0.00,,---,0.00,VWS V14.01,2013-02-12 16:14:00,
2013-02-12 08:19:00,41.4,40.6,30.38,SW,219,0.0,0.0,97,0.00,,---,0.00,VWS V14.01,2013-02-12 16:19:00,
2013-02-12 08:24:00,41.5,40.7,30.38,SW,219,0.0,0.0,97,0.00,,---,0.00,VWS V14.01,2013-02-12 16:24:00,
2013-02-12 08:29:00,41.6,40.8,30.38,SW,219,0.0,0.0,97,0.00,,---,0.00,VWS V14.01,2013-02-12 16:29:00,
2013-02-12 08:34:00,41.8,41.0,30.38,SW,219,0.0,0.0,97,0.00,,---,0.00,VWS V14.01,2013-02-12 16:34:00,
2013-02-12 08:39:00,41.9,41.1,30.39,WSW,240,0.0,0.0,97,0.00,,---,0.00,VWS V14.01,2013-02-12 16:39:00,
2013-02-12 08:44:00,42.0,41.2,30.39,West,272,0.0,0.0,97,0.00,,---,0.00,VWS V14.01,2013-02-12 16:44:00,
2013-02-12 08:49:00,41.9,41.1,30.40,SW,225,0.0,0.0,97,0.00,,---,0.00,VWS V14.01,2013-02-12 16:49:00,
2013-02-12 08:54:00,42.0,41.2,30.39,SW,225,0.0,0.0,97,0.00,,---,0.00,VWS V14.01,2013-02-12 16:54:00,
2013-02-12 08:59:00,41.9,41.1,30.39,West,261,0.0,0.0,97,0.00,,---,0.00,VWS V14.01,2013-02-12 16:59:00,
2013-02-12 09:04:00,42.0,41.2,30.39,WSW,238,0.0,0.0,97,0.00,,---,0.00,VWS V14.01,2013-02-12 17:04:00,
2013-02-12 09:09:00,42.0,41.2,30.39,SW,225,0.0,0.0,97,0.00,,---,0.00,VWS V14.01,2013-02-12 17:09:00,
2013-02-12 09:14:00,41.9,41.1,30.40,SW,226,0.0,0.0,97,0.00,,---,0.00,VWS V14.01,2013-02-12 17:14:00,
2013-02-12 09:19:00,41.9,41.1,30.39,WSW,242,0.0,0.0,97,0.00,,---,0.00,VWS V14.01,2013-02-12 17:19:00,
2013-02-12 09:24:00,41.9,41.1,30.39,SW,220,0.0,0.0,97,0.00,,---,0.00,VWS V14.01,2013-02-12 17:24:00,
2013-02-12 09:29:00,42.0,41.2,30.39,SW,220,0.0,0.0,97,0.00,,---,0.00,VWS V14.01,2013-02-12 17:29:00,
2013-02-12 09:34:00,42.1,41.3,30.39,SW,220,0.0,0.0,97,0.00,,---,0.00,VWS V14.01,2013-02-12 17:34:00,
2013-02-12 09:39:00,42.2,41.4,30.39,WSW,239,0.0,0.0,97,0.00,,---,0.00,VWS V14.01,2013-02-12 17:39:00,
2013-02-12 09:44:00,42.3,41.5,30.39,WSW,240,0.0,0.0,97,0.00,,---,0.00,VWS V14.01,2013-02-12 17:44:00,
2013-02-12 09:49:00,42.4,41.6,30.39,WSW,240,0.0,0.0,97,0.00,,---,0.00,VWS V14.01,2013-02-12 17:49:00,
2013-02-12 09:54:00,42.4,41.6,30.39,SSW,192,0.0,0.0,97,0.00,,---,0.00,VWS V14.01,2013-02-12 17:54:00,
2013-02-12 09:59:00,42.3,41.5,30.39,SW,224,0.0,0.0,97,0.00,,---,0.00,VWS V14.01,2013-02-12 17:59:00,
2013-02-12 10:04:00,42.3,41.5,30.39,WSW,240,1.0,2.0,97,0.00,,---,0.00,VWS V14.01,2013-02-12 18:04:00,
2013-02-12 10:09:00,42.3,41.5,30.39,SSW,192,1.0,3.0,97,0.00,,---,0.00,VWS V14.01,2013-02-12 18:09:00,
2013-02-12 10:14:00,42.3,41.5,30.39,West,274,0.0,3.0,97,0.00,,---,0.00,VWS V14.01,2013-02-12 18:14:00,
2013-02-12 10:19:00,42.4,41.6,30.39,WSW,244,1.0,2.0,97,0.00,,---,0.00,VWS V14.01,2013-02-12 18:19:00,
2013-02-12 10:24:00,42.4,41.6,30.40,West,260,1.0,2.0,97,0.00,,---,0.00,VWS V14.01,2013-02-12 18:24:00,
2013-02-12 10:29:00,42.4,41.6,30.40,West,261,1.0,2.0,97,0.00,,---,0.00,VWS V14.01,2013-02-12 18:29:00,
2013-02-12 10:34:00,42.4,41.3,30.40,West,264,0.0,2.0,96,0.00,,---,0.00,VWS V14.01,2013-02-12 18:34:00,
2013-02-12 10:39:00,42.4,41.3,30.40,West,264,0.0,2.0,96,0.00,,---,0.00,VWS V14.01,2013-02-12 18:39:00,
2013-02-12 10:44:00,42.4,41.3,30.41,West,267,2.0,3.0,96,0.00,,---,0.00,VWS V14.01,2013-02-12 18:44:00,
2013-02-12 10:49:00,42.4,41.3,30.41,West,267,0.0,1.0,96,0.00,,---,0.00,VWS V14.01,2013-02-12 18:49:00,
2013-02-12 10:54:00,42.4,41.3,30.41,WSW,252,0.0,1.0,96,0.00,,---,0.00,VWS V14.01,2013-02-12 18:54:00,
2013-02-12 10:59:00,42.4,41.3,30.41,WSW,252,0.0,1.0,96,0.00,,---,0.00,VWS V14.01,2013-02-12 18:59:00,
2013-02-12 11:04:00,42.5,41.4,30.40,WSW,252,0.0,0.0,96,0.00,,---,0.00,VWS V14.01,2013-02-12 19:04:00,
2013-02-12 11:09:00,42.7,41.6,30.40,WSW,244,0.0,0.0,96,0.00,,---,0.00,VWS V14.01,2013-02-12 19:09:00,
2013-02-12 11:14:00,42.9,41.8,30.40,SSE,168,1.0,1.0,96,0.00,,---,0.00,VWS V14.01,2013-02-12 19:14:00,
2013-02-12 11:19:00,43.0,41.7,30.40,SSE,153,0.0,1.0,95,0.00,,---,0.00,VWS V14.01,2013-02-12 19:19:00,
2013-02-12 11:24:00,43.1,41.8,30.40,ESE,121,0.0,1.0,95,0.00,,---,0.00,VWS V14.01,2013-02-12 19:24:00,
2013-02-12 11:29:00,43.2,41.9,30.40,ESE,111,0.0,2.0,95,0.00,,---,0.00,VWS V14.01,2013-02-12 19:29:00,
2013-02-12 11:34:00,43.4,41.8,30.39,SW,217,3.0,3.0,94,0.00,,---,0.00,VWS V14.01,2013-02-12 19:34:00,
2013-02-12 11:39:00,43.5,41.9,30.40,SSW,207,0.0,3.0,94,0.00,,---,0.00,VWS V14.01,2013-02-12 19:39:00,
2013-02-12 11:44:00,43.8,42.2,30.39,South,174,0.0,3.0,94,0.00,,---,0.00,VWS V14.01,2013-02-12 19:44:00,
2013-02-12 11:49:00,44.0,42.4,30.39,ESE,109,0.0,2.0,94,0.00,,---,0.00,VWS V14.01,2013-02-12 19:49:00,
2013-02-12 11:54:00,44.2,42.6,30.39,SSE,154,0.0,2.0,94,0.00,,---,0.00,VWS V14.01,2013-02-12 19:54:00,
2013-02-12 11:59:00,44.6,43.0,30.39,WSW,258,0.0,2.0,94,0.00,,---,0.00,VWS V14.01,2013-02-12 19:59:00,
2013-02-12 12:04:00,44.9,43.0,30.40,SW,219,4.0,5.0,93,0.00,,---,0.00,VWS V14.01,2013-02-12 20:04:00,
2013-02-12 12:09:00,44.8,42.9,30.40,SSE,168,2.0,5.0,93,0.00,,---,0.00,VWS V14.01,2013-02-12 20:09:00,
2013-02-12 12:14:00,44.8,42.9,30.40,South,179,0.0,5.0,93,0.00,,---,0.00,VWS V14.01,2013-02-12 20:14:00,
2013-02-12 12:19:00,44.8,42.9,30.39,SE,144,0.0,2.0,93,0.00,,---,0.00,VWS V14.01,2013-02-12 20:19:00,
2013-02-12 12:24:00,44.7,42.8,30.39,ESE,120,0.0,2.0,93,0.00,,---,0.00,VWS V14.01,2013-02-12 20:24:00,
2013-02-12 12:29:00,44.8,42.9,30.39,ESE,120,0.0,2.0,93,0.00,,---,0.00,VWS V14.01,2013-02-12 20:29:00,
2013-02-12 12:34:00,44.9,43.3,30.38,NNE,28,0.0,0.0,94,0.00,,---,0.00,VWS V14.01,2013-02-12 20:34:00,
2013-02-12 12:39:00,44.9,43.0,30.37,NE,35,2.0,3.0,93,0.00,,---,0.00,VWS V14.01,2013-02-12 20:39:00,
2013-02-12 12:44:00,44.8,43.2,30.37,SE,139,0.0,3.0,94,0.00,,---,0.00,VWS V14.01,2013-02-12 20:44:00,
2013-02-12 12:49:00,44.7,43.1,30.37,SE,146,0.0,2.0,94,0.00,,---,0.00,VWS V14.01,2013-02-12 20:49:00,
2013-02-12 12:54:00,44.6,43.0,30.37,ENE,59,2.0,4.0,94,0.00,,---,0.00,VWS V14.01,2013-02-12 20:54:00,
2013-02-12 12:59:00,44.7,43.4,30.37,SSE,153,0.0,4.0,95,0.00,,---,0.00,VWS V14.01,2013-02-12 20:59:00,
2013-02-12 13:04:00,44.7,43.4,30.37,ESE,113,0.0,3.0,95,0.00,,---,0.00,VWS V14.01,2013-02-12 21:04:00,
2013-02-12 13:09:00,44.7,43.4,30.37,WNW,284,0.0,3.0,95,0.00,,---,0.00,VWS V14.01,2013-02-12 21:09:00,
2013-02-12 13:14:00,44.8,43.5,30.36,ESE,121,1.0,3.0,95,0.00,,---,0.00,VWS V14.01,2013-02-12 21:14:00,
2013-02-12 13:19:00,44.8,43.5,30.36,SE,124,1.0,3.0,95,0.00,,---,0.00,VWS V14.01,2013-02-12 21:19:00,
2013-02-12 13:24:00,44.9,43.6,30.36,SSE,163,2.0,3.0,95,0.00,,---,0.00,VWS V14.01,2013-02-12 21:24:00,
2013-02-12 13:29:00,45.0,43.7,30.36,ESE,115,0.0,3.0,95,0.00,,---,0.00,VWS V14.01,2013-02-12 21:29:00,
2013-02-12 13:34:00,45.1,43.8,30.36,ESE,109,0.0,2.0,95,0.00,,---,0.00,VWS V14.01,2013-02-12 21:34:00,
2013-02-12 13:39:00,45.3,44.0,30.37,SW,227,1.0,2.0,95,0.00,,---,0.00,VWS V14.01,2013-02-12 21:39:00,
2013-02-12 13:44:00,45.3,43.7,30.36,ESE,105,1.0,2.0,94,0.00,,---,0.00,VWS V14.01,2013-02-12 21:44:00,
2013-02-12 13:49:00,45.5,43.9,30.35,ESE,118,2.0,2.0,94,0.00,,---,0.00,VWS V14.01,2013-02-12 21:49:00,
2013-02-12 13:54:00,45.5,43.9,30.34,ESE,107,1.0,4.0,94,0.00,,---,0.00,VWS V14.01,2013-02-12 21:54:00,
2013-02-12 13:59:00,45.6,44.0,30.34,East,91,0.0,4.0,94,0.00,,---,0.00,VWS V14.01,2013-02-12 21:59:00,
2013-02-12 14:04:00,45.8,44.2,30.34,SE,138,0.0,3.0,94,0.00,,---,0.00,VWS V14.01,2013-02-12 22:04:00,
2013-02-12 14:09:00,45.9,44.3,30.33,NE,37,3.0,4.0,94,0.00,,---,0.00,VWS V14.01,2013-02-12 22:09:00,
2013-02-12 14:14:00,46.0,44.1,30.33,ESE,118,1.0,4.0,93,0.00,,---,0.00,VWS V14.01,2013-02-12 22:14:00,
2013-02-12 14:19:00,46.2,44.3,30.32,ENE,59,3.0,4.0,93,0.00,,---,0.00,VWS V14.01,2013-02-12 22:19:00,
2013-02-12 14:24:00,46.4,44.8,30.32,East,88,1.0,4.0,94,0.00,,---,0.00,VWS V14.01,2013-02-12 22:24:00,
2013-02-12 14:29:00,46.7,44.8,30.31,East,100,3.0,4.0,93,0.00,,---,0.00,VWS V14.01,2013-02-12 22:29:00,
2013-02-12 14:34:00,46.8,44.6,30.32,NE,38,1.0,5.0,92,0.00,,---,0.00,VWS V14.01,2013-02-12 22:34:00,
2013-02-12 14:39:00,46.9,44.7,30.32,ENE,77,0.0,5.0,92,0.00,,---,0.00,VWS V14.01,2013-02-12 22:39:00,
2013-02-12 14:44:00,47.0,44.8,30.32,NNE,28,0.0,5.0,92,0.00,,---,0.00,VWS V14.01,2013-02-12 22:44:00,
2013-02-12 14:49:00,47.0,44.8,30.32,ENE,74,0.0,2.0,92,0.00,,---,0.00,VWS V14.01,2013-02-12 22:49:00,
2013-02-12 14:54:00,47.0,44.8,30.32,NE,44,0.0,3.0,92,0.00,,---,0.00,VWS V14.01,2013-02-12 22:54:00,
2013-02-12 14:59:00,47.1,44.9,30.33,West,276,1.0,5.0,92,0.00,,---,0.00,VWS V14.01,2013-02-12 22:59:00,
2013-02-12 15:04:00,47.2,44.7,30.33,ESE,119,4.0,5.0,91,0.00,,---,0.00,VWS V14.01,2013-02-12 23:04:00,
2013-02-12 15:09:00,47.4,44.9,30.32,NE,49,0.0,6.0,91,0.00,,---,0.00,VWS V14.01,2013-02-12 23:09:00,
2013-02-12 15:14:00,47.5,44.7,30.32,East,85,0.0,6.0,90,0.00,,---,0.00,VWS V14.01,2013-02-12 23:14:00,
2013-02-12 15:19:00,47.7,44.9,30.32,SE,124,0.0,4.0,90,0.00,,---,0.00,VWS V14.01,2013-02-12 23:19:00,
2013-02-12 15:24:00,47.8,44.7,30.33,SSE,150,0.0,4.0,89,0.00,,---,0.00,VWS V14.01,2013-02-12 23:24:00,
2013-02-12 15:29:00,47.9,44.8,30.32,ESE,115,3.0,4.0,89,0.00,,---,0.00,VWS V14.01,2013-02-12 23:29:00,
2013-02-12 15:34:00,48.0,44.9,30.32,SE,146,2.0,5.0,89,0.00,,---,0.00,VWS V14.01,2013-02-12 23:34:00,
2013-02-12 15:39:00,48.1,45.3,30.31,East,88,2.0,7.0,90,0.00,,---,0.00,VWS V14.01,2013-02-12 23:39:00,
2013-02-12 15:44:00,48.2,45.1,30.31,NE,55,4.0,7.0,89,0.00,,---,0.00,VWS V14.01,2013-02-12 23:44:00,
2013-02-12 15:49:00,48.3,45.2,30.31,ESE,119,1.0,6.0,89,0.00,,---,0.00,VWS V14.01,2013-02-12 23:49:00,
2013-02-12 15:54:00,48.5,45.1,30.30,ESE,105,5.0,6.0,88,0.00,,---,0.00,VWS V14.01,2013-02-12 23:54:00,
2013-02-12 15:59:00,48.6,44.9,30.31,SE,131,1.0,8.0,87,0.00,,---,0.00,VWS V14.01,2013-02-12 23:59:00,
2013-02-12 16:04:00,48.8,44.8,30.30,ESE,108,1.0,7.0,86,0.00,,---,0.00,VWS V14.01,2013-02-13 00:04:00,
2013-02-12 16:09:00,49.1,45.1,30.29,East,93,5.0,9.0,86,0.00,,---,0.00,VWS V14.01,2013-02-13 00:09:00,
2013-02-12 16:14:00,49.5,45.2,30.30,ESE,107,3.0,9.0,85,0.00,,---,0.00,VWS V14.01,2013-02-13 00:14:00,
2013-02-12 16:19:00,49.5,45.2,30.30,East,84,8.0,8.0,85,0.00,,---,0.00,VWS V14.01,2013-02-13 00:19:00,
2013-02-12 16:24:00,49.6,45.3,30.30,North,360,3.0,8.0,85,0.00,,---,0.00,VWS V14.01,2013-02-13 00:24:00,
2013-02-12 16:29:00,50.0,45.7,30.30,ENE,63,4.0,8.0,85,0.00,,---,0.00,VWS V14.01,2013-02-13 00:29:00,
2013-02-12 16:34:00,50.1,45.5,30.31,East,91,0.0,6.0,84,0.00,,---,0.00,VWS V14.01,2013-02-13 00:34:00,
2013-02-12 16:39:00,50.1,45.5,30.31,ESE,113,2.0,6.0,84,0.00,,---,0.00,VWS V14.01,2013-02-13 00:39:00,
2013-02-12 16:44:00,50.0,45.4,30.31,ESE,119,5.0,6.0,84,0.00,,---,0.00,VWS V14.01,2013-02-13 00:44:00,
2013-02-12 16:49:00,50.0,45.4,30.32,SSE,149,1.0,3.0,84,0.00,,---,0.00,VWS V14.01,2013-02-13 00:49:00,
2013-02-12 16:54:00,50.0,45.0,30.31,WSW,251,5.0,5.0,83,0.00,,---,0.00,VWS V14.01,2013-02-13 00:54:00,
2013-02-12 16:59:00,49.9,44.3,30.31,SW,218,9.0,9.0,81,0.00,,---,0.00,VWS V14.01,2013-02-13 00:59:00,
2013-02-12 17:04:00,49.8,44.2,30.31,WSW,244,2.0,10.0,81,0.00,,---,0.00,VWS V14.01,2013-02-13 01:04:00,
2013-02-12 17:09:00,49.7,44.1,30.31,WSW,242,6.0,10.0,81,0.00,,---,0.00,VWS V14.01,2013-02-13 01:09:00,
2013-02-12 17:14:00,49.6,44.0,30.31,SSW,196,3.0,13.0,81,0.00,,---,0.00,VWS V14.01,2013-02-13 01:14:00,
2013-02-12 17:19:00,49.4,43.8,30.31,East,97,5.0,11.0,81,0.00,,---,0.00,VWS V14.01,2013-02-13 01:19:00,
2013-02-12 17:24:00,49.2,43.6,30.31,SSW,211,5.0,11.0,81,0.00,,---,0.00,VWS V14.01,2013-02-13 01:24:00,
2013-02-12 17:29:00,49.1,43.8,30.31,SSW,192,3.0,11.0,82,0.00,,---,0.00,VWS V14.01,2013-02-13 01:29:00,
2013-02-12 17:34:00,48.9,44.0,30.31,SW,234,7.0,10.0,83,0.00,,---,0.00,VWS V14.01,2013-02-13 01:34:00,
2013-02-12 17:39:00,48.7,43.8,30.31,WSW,238,6.0,10.0,83,0.00,,---,0.00,VWS V14.01,2013-02-13 01:39:00,
2013-02-12 17:44:00,48.5,43.9,30.31,SSW,200,8.0,10.0,84,0.00,,---,0.00,VWS V14.01,2013-02-13 01:44:00,
2013-02-12 17:49:00,48.4,43.8,30.31,SW,227,4.0,9.0,84,0.00,,---,0.00,VWS V14.01,2013-02-13 01:49:00,
2013-02-12 17:54:00,48.2,43.9,30.31,SSW,193,5.0,11.0,85,0.00,,---,0.00,VWS V14.01,2013-02-13 01:54:00,
2013-02-12 17:59:00,48.1,43.8,30.31,WNW,291,2.0,11.0,85,0.00,,---,0.00,VWS V14.01,2013-02-13 01:59:00,
2013-02-12 18:04:00,48.0,43.7,30.31,SSW,207,7.0,11.0,85,0.00,,---,0.00,VWS V14.01,2013-02-13 02:04:00,
2013-02-12 18:09:00,48.1,43.8,30.31,WSW,242,5.0,12.0,85,0.00,,---,0.00,VWS V14.01,2013-02-13 02:09:00,
2013-02-12 18:14:00,48.0,44.0,30.31,SSW,198,5.0,12.0,86,0.00,,---,0.00,VWS V14.01,2013-02-13 02:14:00,
2013-02-12 18:19:00,47.9,43.9,30.31,SW,234,2.0,5.0,86,0.00,,---,0.00,VWS V14.01,2013-02-13 02:19:00,
2013-02-12 18:24:00,47.8,43.8,30.31,WSW,246,3.0,5.0,86,0.00,,---,0.00,VWS V14.01,2013-02-13 02:24:00,
2013-02-12 18:29:00,47.8,43.8,30.31,SW,228,3.0,5.0,86,0.00,,---,0.00,VWS V14.01,2013-02-13 02:29:00,
2013-02-12 18:34:00,47.8,44.1,30.31,WSW,238,0.0,2.0,87,0.00,,---,0.00,VWS V14.01,2013-02-13 02:34:00,
2013-02-12 18:39:00,47.7,44.0,30.31,South,184,3.0,4.0,87,0.00,,---,0.00,VWS V14.01,2013-02-13 02:39:00,
2013-02-12 18:44:00,47.8,44.1,30.31,South,171,2.0,6.0,87,0.00,,---,0.00,VWS V14.01,2013-02-13 02:44:00,
2013-02-12 18:49:00,47.8,44.1,30.31,SSW,210,4.0,5.0,87,0.00,,---,0.00,VWS V14.01,2013-02-13 02:49:00,
2013-02-12 18:54:00,47.8,44.1,30.31,WSW,243,4.0,6.0,87,0.00,,---,0.00,VWS V14.01,2013-02-13 02:54:00,
2013-02-12 18:59:00,47.8,44.1,30.31,SW,219,0.0,6.0,87,0.00,,---,0.00,VWS V14.01,2013-02-13 02:59:00,
2013-02-12 19:04:00,47.7,44.3,30.30,ENE,59,0.0,2.0,88,0.00,,---,0.00,VWS V14.01,2013-02-13 03:04:00,
2013-02-12 19:09:00,47.7,44.0,30.30,NNE,17,1.0,6.0,87,0.00,,---,0.00,VWS V14.01,2013-02-13 03:09:00,
2013-02-12 19:14:00,47.7,44.0,30.30,East,100,1.0,6.0,87,0.00,,---,0.00,VWS V14.01,2013-02-13 03:14:00,
2013-02-12 19:19:00,47.7,44.0,30.30,WSW,238,2.0,5.0,87,0.00,,---,0.00,VWS V14.01,2013-02-13 03:19:00,
2013-02-12 19:24:00,47.7,44.0,30.29,SSW,209,1.0,5.0,87,0.00,,---,0.00,VWS V14.01,2013-02-13 03:24:00,
2013-02-12 19:29:00,47.7,44.0,30.29,SSE,167,1.0,5.0,87,0.00,,---,0.00,VWS V14.01,2013-02-13 03:29:00,
2013-02-12 19:34:00,47.7,44.0,30.29,SE,146,2.0,7.0,87,0.00,,---,0.00,VWS V14.01,2013-02-13 03:34:00,
2013-02-12 19:39:00,47.7,44.0,30.29,SSW,207,0.0,7.0,87,0.00,,---,0.00,VWS V14.01,2013-02-13 03:39:00,
2013-02-12 19:44:00,47.6,43.9,30.29,SSE,165,0.0,7.0,87,0.00,,---,0.00,VWS V14.01,2013-02-13 03:44:00,
2013-02-12 19:49:00,47.6,43.9,30.29,WNW,297,0.0,5.0,87,0.00,,---,0.00,VWS V14.01,2013-02-13 03:49:00,
2013-02-12 19:54:00,47.5,43.8,30.29,SW,217,0.0,5.0,87,0.00,,---,0.00,VWS V14.01,2013-02-13 03:54:00,
2013-02-12 19:59:00,47.5,43.8,30.29,SSE,161,0.0,7.0,87,0.00,,---,0.00,VWS V14.01,2013-02-13 03:59:00,
2013-02-12 20:04:00,47.5,44.1,30.29,SSW,201,7.0,7.0,88,0.00,,---,0.00,VWS V14.01,2013-02-13 04:04:00,
2013-02-12 20:09:00,47.4,44.0,30.29,SSE,165,0.0,7.0,88,0.00,,---,0.00,VWS V14.01,2013-02-13 04:09:00,
2013-02-12 20:14:00,47.4,44.0,30.29,NW,320,3.0,7.0,88,0.00,,---,0.00,VWS V14.01,2013-02-13 04:14:00,
2013-02-12 20:19:00,47.3,43.9,30.29,NE,49,1.0,5.0,88,0.00,,---,0.00,VWS V14.01,2013-02-13 04:19:00,
2013-02-12 20:24:00,47.2,43.8,30.29,SW,227,1.0,5.0,88,0.00,,---,0.00,VWS V14.01,2013-02-13 04:24:00,
2013-02-12 20:29:00,47.1,43.7,30.29,SSE,150,1.0,5.0,88,0.00,,---,0.00,VWS V14.01,2013-02-13 04:29:00,
2013-02-12 20:34:00,47.0,43.6,30.29,SSE,151,1.0,2.0,88,0.00,,---,0.00,VWS V14.01,2013-02-13 04:34:00,
2013-02-12 20:39:00,46.9,43.5,30.29,SSE,150,1.0,3.0,88,0.00,,---,0.00,VWS V14.01,2013-02-13 04:39:00,
2013-02-12 20:44:00,46.9,43.5,30.29,SE,134,0.0,5.0,88,0.00,,---,0.00,VWS V14.01,2013-02-13 04:44:00,
2013-02-12 20:49:00,46.8,43.4,30.29,South,182,2.0,5.0,88,0.00,,---,0.00,VWS V14.01,2013-02-13 04:49:00,
2013-02-12 20:54:00,46.8,43.4,30.29,SSE,162,1.0,5.0,88,0.00,,---,0.00,VWS V14.01,2013-02-13 04:54:00,
2013-02-12 20:59:00,46.7,43.3,30.29,NW,310,3.0,8.0,88,0.00,,---,0.00,VWS V14.01,2013-02-13 04:59:00,
2013-02-12 21:00:00,46.7,43.3,30.28,SSE,165,1.0,8.0,88,0.00,,---,0.00,VWS V14.01,2013-02-13 05:00:00,
2013-02-12 21:05:00,46.6,43.2,30.29,WSW,246,0.0,2.0,88,0.00,,---,0.00,VWS V14.01,2013-02-13 05:05:00,
2013-02-12 21:10:00,46.6,43.2,30.28,SSW,199,2.0,6.0,88,0.00,,---,0.00,VWS V14.01,2013-02-13 05:10:00,
2013-02-12 21:15:00,46.7,43.0,30.28,SW,224,5.0,11.0,87,0.00,,---,0.00,VWS V14.01,2013-02-13 05:15:00,
2013-02-12 21:20:00,46.7,43.0,30.28,West,270,7.0,10.0,87,0.00,,---,0.00,VWS V14.01,2013-02-13 05:20:00,
2013-02-12 21:25:00,46.8,42.8,30.27,SW,225,4.0,10.0,86,0.00,,---,0.00,VWS V14.01,2013-02-13 05:25:00,
2013-02-12 21:30:00,46.7,42.7,30.27,SE,146,4.0,10.0,86,0.00,,---,0.00,VWS V14.01,2013-02-13 05:30:00,
2013-02-12 21:35:00,46.5,42.5,30.27,SSE,167,2.0,7.0,86,0.00,,---,0.00,VWS V14.01,2013-02-13 05:35:00,
2013-02-12 21:40:00,46.4,42.5,30.27,West,265,0.0,7.0,86,0.00,,---,0.00,VWS V14.01,2013-02-13 05:40:00,
2013-02-12 21:45:00,46.3,42.3,30.27,SSW,203,3.0,8.0,86,0.00,,---,0.00,VWS V14.01,2013-02-13 05:45:00,
2013-02-12 21:50:00,46.3,42.0,30.27,SW,229,7.0,7.0,85,0.00,,---,0.00,VWS V14.01,2013-02-13 05:50:00,
2013-02-12 21:55:00,46.5,42.2,30.27,WSW,254,0.0,10.0,85,0.00,,---,0.00,VWS V14.01,2013-02-13 05:55:00,
2013-02-12 22:00:00,46.5,42.2,30.27,NNE,15,0.0,10.0,85,0.00,,---,0.00,VWS V14.01,2013-02-13 06:00:00,
2013-02-12 22:05:00,46.5,42.2,30.27,WSW,248,5.0,7.0,85,0.00,,---,0.00,VWS V14.01,2013-02-13 06:05:00,
2013-02-12 22:10:00,46.5,42.2,30.27,ENE,61,1.0,8.0,85,0.00,,---,0.00,VWS V14.01,2013-02-13 06:10:00,
2013-02-12 22:15:00,46.5,42.2,30.27,NW,318,1.0,8.0,85,0.00,,---,0.00,VWS V14.01,2013-02-13 06:15:00,
2013-02-12 22:20:00,46.5,42.5,30.27,SSE,150,4.0,6.0,86,0.00,,---,0.00,VWS V14.01,2013-02-13 06:20:00,
2013-02-12 22:25:00,46.4,42.5,30.27,South,178,0.0,11.0,86,0.00,,---,0.00,VWS V14.01,2013-02-13 06:25:00,
2013-02-12 22:30:00,46.4,42.5,30.28,WSW,244,1.0,11.0,86,0.00,,---,0.00,VWS V14.01,2013-02-13 06:30:00,
2013-02-12 22:35:00,46.6,42.6,30.28,SSW,204,4.0,11.0,86,0.00,,---,0.00,VWS V14.01,2013-02-13 06:35:00,
2013-02-12 22:40:00,46.5,42.5,30.29,SW,221,3.0,11.0,86,0.00,,---,0.00,VWS V14.01,2013-02-13 06:40:00,
2013-02-12 22:45:00,46.5,42.8,30.28,SSW,211,2.0,11.0,87,0.00,,---,0.00,VWS V14.01,2013-02-13 06:45:00,
2013-02-12 22:50:00,46.4,42.8,30.28,WSW,240,2.0,5.0,87,0.00,,---,0.00,VWS V14.01,2013-02-13 06:50:00,
2013-02-12 22:55:00,46.4,42.8,30.28,WSW,242,8.0,8.0,87,0.00,,---,0.00,VWS V14.01,2013-02-13 06:55:00,
2013-02-12 23:00:00,46.4,42.8,30.29,SW,236,8.0,8.0,87,0.00,,---,0.00,VWS V14.01,2013-02-13 07:00:00,
2013-02-12 23:05:00,46.4,43.0,30.28,West,280,4.0,6.0,88,0.00,,---,0.00,VWS V14.01,2013-02-13 07:05:00,
2013-02-12 23:10:00,46.3,43.0,30.29,SSW,198,7.0,11.0,88,0.00,,---,0.00,VWS V14.01,2013-02-13 07:10:00,
2013-02-12 23:15:00,46.3,43.2,30.29,West,262,7.0,11.0,89,0.00,,---,0.00,VWS V14.01,2013-02-13 07:15:00,
2013-02-12 23:20:00,46.2,43.4,30.29,WSW,252,8.0,10.0,90,0.00,,---,0.00,VWS V14.01,2013-02-13 07:20:00,
2013-02-12 23:25:00,46.1,43.3,30.28,SW,222,5.0,10.0,90,0.00,,---,0.00,VWS V14.01,2013-02-13 07:25:00,
2013-02-12 23:30:00,46.1,43.3,30.29,WSW,248,5.0,10.0,90,0.00,,---,0.00,VWS V14.01,2013-02-13 07:30:00,
2013-02-12 23:35:00,46.1,43.3,30.29,West,270,4.0,9.0,90,0.00,,---,0.00,VWS V14.01,2013-02-13 07:35:00,
2013-02-12 23:40:00,46.1,43.3,30.29,SSW,196,4.0,9.0,90,0.00,,---,0.00,VWS V14.01,2013-02-13 07:40:00,
2013-02-12 23:45:00,46.1,43.6,30.30,West,265,6.0,9.0,91,0.00,,---,0.00,VWS V14.01,2013-02-13 07:45:00,
2013-02-12 23:50:00,46.1,43.6,30.31,SSW,213,3.0,7.0,91,0.00,,---,0.00,VWS V14.01,2013-02-13 07:50:00,
2013-02-12 23:55:00,46.1,43.6,30.31,West,272,5.0,11.0,91,0.00,,---,0.00,VWS V14.01,2013-02-13 07:55:00,